User: anonymous   Login
Location: Unspecified
(0.0000°N, 0.0000°E)
Time: 15:29:30
(UTC+00:00)
Language:

CHUBUSAT 2 - Orbit

View from above orbital plane
View from above orbital plane
View from above satellite
View from above satellite

Ground track
Ground track

The orbit data is extracted from the following two-line orbital elements,

1 41338U 16012B   18108.88830940  .00000383  00000-0  23242-4 0  9998
2 41338  31.0041 330.3948 0013963 206.8090 153.1824 14.99956938118925
Epoch (UTC): 18 April 2018 21:19:09
Eccentricity: 0.0013963
inclination: 31.0041°
perigee height: 557 km
apogee height: 577 km
right ascension of ascending node: 330.3948°
argument of perigee: 206.8090°
revolutions per day: 14.99956938
mean anomaly at epoch: 153.1824°
orbit number at epoch: 11892

The dashed part of the orbit path shows where the satellite is in the earth's shadow,  

DLR